Time,TemperatureF,DewpointF,PressureIn,WindDirection,WindDirectionDegrees,WindSpeedMPH,WindSpeedGustMPH,Humidity,HourlyPrecipIn,Conditions,Clouds,dailyrainin,SolarRadiationWatts/m^2,SoftwareType,DateUTC
2015-07-03 00:04:00,73.0,56.9,29.86,NNE,21,2.0,12.0,57,0.00,,,0.00,0,Wunderground v.1.15,2015-07-03 07:04:00,
2015-07-03 00:08:00,72.1,56.5,29.86,NW,319,7.0,7.0,58,0.00,,,0.00,0,Wunderground v.1.15,2015-07-03 07:08:00,
2015-07-03 00:09:00,72.9,56.8,29.86,North,355,2.0,7.0,57,0.00,,,0.00,0,Wunderground v.1.15,2015-07-03 07:09:00,
2015-07-03 00:13:00,72.0,56.4,29.86,NNW,333,8.0,9.0,58,0.00,,,0.00,0,Wunderground v.1.15,2015-07-03 07:13:00,
2015-07-03 00:14:00,72.7,56.6,29.86,NW,321,9.0,9.0,57,0.00,,,0.00,0,Wunderground v.1.15,2015-07-03 07:14:00,
2015-07-03 00:15:00,72.0,56.4,29.86,NNW,347,2.0,12.0,58,0.00,,,0.00,0,Wunderground v.1.15,2015-07-03 07:15:00,
2015-07-03 00:17:00,71.9,56.3,29.86,NW,320,4.0,12.0,58,0.00,,,0.00,0,Wunderground v.1.15,2015-07-03 07:17:00,
2015-07-03 00:18:00,71.9,56.3,29.86,NNW,329,5.0,12.0,58,0.00,,,0.00,0,Wunderground v.1.15,2015-07-03 07:18:00,
2015-07-03 00:23:00,72.5,56.9,29.86,NW,321,3.0,5.0,58,0.00,,,0.00,0,Wunderground v.1.15,2015-07-03 07:23:00,
2015-07-03 00:28:00,72.1,56.5,29.86,NNW,331,5.0,7.0,58,0.00,,,0.00,0,Wunderground v.1.15,2015-07-03 07:28:00,
2015-07-03 00:29:00,71.8,56.2,29.87,NNW,332,1.0,9.0,58,0.00,,,0.00,0,Wunderground v.1.15,2015-07-03 07:29:00,
2015-07-03 00:33:00,71.7,56.1,29.87,NNW,329,2.0,7.0,58,0.00,,,0.00,0,Wunderground v.1.15,2015-07-03 07:33:00,
2015-07-03 00:34:00,72.0,56.4,29.86,NNW,342,8.0,12.0,58,0.00,,,0.00,0,Wunderground v.1.15,2015-07-03 07:34:00,
2015-07-03 00:39:00,71.9,56.3,29.86,North,350,6.0,6.0,58,0.00,,,0.00,0,Wunderground v.1.15,2015-07-03 07:39:00,
2015-07-03 00:45:00,71.8,56.2,29.87,NNW,340,3.0,9.0,58,0.00,,,0.00,0,Wunderground v.1.15,2015-07-03 07:45:00,
2015-07-03 00:50:00,71.3,56.2,29.87,NNW,339,3.0,3.0,59,0.00,,,0.00,0,Wunderground v.1.15,2015-07-03 07:50:00,
2015-07-03 00:52:00,71.7,56.1,29.87,NNW,328,1.0,7.0,58,0.00,,,0.00,0,Wunderground v.1.15,2015-07-03 07:52:00,
2015-07-03 00:57:00,71.1,56.0,29.87,NNE,21,1.0,5.0,59,0.00,,,0.00,0,Wunderground v.1.15,2015-07-03 07:57:00,
2015-07-03 00:58:00,71.6,56.5,29.87,NNE,17,5.0,5.0,59,0.00,,,0.00,0,Wunderground v.1.15,2015-07-03 07:58:00,
2015-07-03 01:03:00,71.0,55.9,29.87,NNE,21,0.0,1.0,59,0.00,,,0.00,0,Wunderground v.1.15,2015-07-03 08:03:00,
2015-07-03 01:04:00,71.4,56.3,29.87,North,351,0.0,5.0,59,0.00,,,0.00,0,Wunderground v.1.15,2015-07-03 08:04:00,
2015-07-03 01:05:00,70.8,56.2,29.87,NNE,21,0.0,1.0,60,0.00,,,0.00,0,Wunderground v.1.15,2015-07-03 08:05:00,
2015-07-03 01:07:00,70.8,55.8,29.87,NNE,21,0.0,1.0,59,0.00,,,0.00,0,Wunderground v.1.15,2015-07-03 08:07:00,
2015-07-03 01:09:00,70.7,56.1,29.87,NNE,21,1.0,1.0,60,0.00,,,0.00,0,Wunderground v.1.15,2015-07-03 08:09:00,
2015-07-03 01:10:00,71.2,56.1,29.87,NNE,23,2.0,5.0,59,0.00,,,0.00,0,Wunderground v.1.15,2015-07-03 08:10:00,
2015-07-03 01:11:00,70.6,56.0,29.87,NNE,21,1.0,2.0,60,0.00,,,0.00,0,Wunderground v.1.15,2015-07-03 08:11:00,
2015-07-03 01:12:00,70.6,56.0,29.87,NNE,21,0.0,2.0,60,0.00,,,0.00,0,Wunderground v.1.15,2015-07-03 08:12:00,
2015-07-03 01:14:00,70.6,56.0,29.87,NNE,21,0.0,1.0,60,0.00,,,0.00,0,Wunderground v.1.15,2015-07-03 08:14:00,
2015-07-03 01:16:00,71.0,56.0,29.87,NNE,21,0.0,6.0,59,0.00,,,0.00,,weatherlink.com 1.10,2015-07-03 08:16:00,
2015-07-03 01:17:00,70.4,55.8,29.88,NNE,21,3.0,3.0,60,0.00,,,0.00,0,Wunderground v.1.15,2015-07-03 08:17:00,
2015-07-03 01:18:00,70.4,55.8,29.88,NNE,22,4.0,4.0,60,0.00,,,0.00,0,Wunderground v.1.15,2015-07-03 08:18:00,
2015-07-03 01:19:00,70.4,56.3,29.88,NNE,22,3.0,4.0,61,0.00,,,0.00,0,Wunderground v.1.15,2015-07-03 08:19:00,
2015-07-03 01:20:00,70.3,56.2,29.88,NNE,22,2.0,4.0,61,0.00,,,0.00,0,Wunderground v.1.15,2015-07-03 08:20:00,
2015-07-03 01:21:00,70.3,56.2,29.88,NNE,22,0.0,4.0,61,0.00,,,0.00,0,Wunderground v.1.15,2015-07-03 08:21:00,
2015-07-03 01:22:00,70.9,55.9,29.87,NNE,21,0.0,1.0,59,0.00,,,0.00,0,Wunderground v.1.15,2015-07-03 08:22:00,
2015-07-03 01:23:00,70.2,56.1,29.88,NE,39,4.0,4.0,61,0.00,,,0.00,0,Wunderground v.1.15,2015-07-03 08:23:00,
2015-07-03 01:25:00,70.2,56.1,29.88,NE,39,2.0,4.0,61,0.00,,,0.00,0,Wunderground v.1.15,2015-07-03 08:25:00,
2015-07-03 01:26:00,70.1,56.0,29.88,NE,51,5.0,5.0,61,0.00,,,0.00,0,Wunderground v.1.15,2015-07-03 08:26:00,
2015-07-03 01:28:00,70.7,56.1,29.87,NNE,21,2.0,2.0,60,0.00,,,0.00,0,Wunderground v.1.15,2015-07-03 08:28:00,
2015-07-03 01:29:00,70.1,56.0,29.88,NE,51,0.0,5.0,61,0.00,,,0.00,0,Wunderground v.1.15,2015-07-03 08:29:00,
2015-07-03 01:30:00,70.0,55.9,29.88,NE,51,0.0,5.0,61,0.00,,,0.00,0,Wunderground v.1.15,2015-07-03 08:30:00,
2015-07-03 01:31:00,70.0,55.9,29.88,NE,51,0.0,5.0,61,0.00,,,0.00,0,Wunderground v.1.15,2015-07-03 08:31:00,
2015-07-03 01:33:00,69.9,56.3,29.88,NE,51,3.0,3.0,62,0.00,,,0.00,0,Wunderground v.1.15,2015-07-03 08:33:00,
2015-07-03 01:34:00,70.5,55.9,29.88,NNE,21,0.0,1.0,60,0.00,,,0.00,0,Wunderground v.1.15,2015-07-03 08:34:00,
2015-07-03 01:36:00,69.8,56.2,29.88,NE,50,0.0,3.0,62,0.00,,,0.00,0,Wunderground v.1.15,2015-07-03 08:36:00,
2015-07-03 01:37:00,69.7,56.1,29.88,NE,45,3.0,3.0,62,0.00,,,0.00,0,Wunderground v.1.15,2015-07-03 08:37:00,
2015-07-03 01:38:00,69.7,56.1,29.88,NE,45,2.0,3.0,62,0.00,,,0.00,0,Wunderground v.1.15,2015-07-03 08:38:00,
2015-07-03 01:39:00,69.6,56.4,29.88,NE,45,0.0,3.0,63,0.00,,,0.00,0,Wunderground v.1.15,2015-07-03 08:39:00,
2015-07-03 01:40:00,70.3,56.2,29.88,NE,40,5.0,5.0,61,0.00,,,0.00,0,Wunderground v.1.15,2015-07-03 08:40:00,
2015-07-03 01:42:00,69.4,56.3,29.88,NE,45,2.0,3.0,63,0.00,,,0.00,0,Wunderground v.1.15,2015-07-03 08:42:00,
2015-07-03 01:43:00,69.4,56.3,29.88,NE,45,1.0,2.0,63,0.00,,,0.00,0,Wunderground v.1.15,2015-07-03 08:43:00,
2015-07-03 01:44:00,69.3,56.2,29.88,NE,45,0.0,2.0,63,0.00,,,0.00,0,Wunderground v.1.15,2015-07-03 08:44:00,
2015-07-03 01:45:00,70.1,56.0,29.88,NE,51,0.0,5.0,61,0.00,,,0.00,0,Wunderground v.1.15,2015-07-03 08:45:00,
2015-07-03 01:47:00,69.1,56.0,29.88,NNE,17,4.0,4.0,63,0.00,,,0.00,0,Wunderground v.1.15,2015-07-03 08:47:00,
2015-07-03 01:48:00,69.0,55.9,29.88,North,360,4.0,4.0,63,0.00,,,0.00,0,Wunderground v.1.15,2015-07-03 08:48:00,
2015-07-03 01:49:00,69.0,55.9,29.88,North,5,5.0,5.0,63,0.00,,,0.00,0,Wunderground v.1.15,2015-07-03 08:49:00,
2015-07-03 01:51:00,68.8,56.1,29.88,North,5,4.0,6.0,64,0.00,,,0.00,0,Wunderground v.1.15,2015-07-03 08:51:00,
2015-07-03 01:52:00,68.8,56.1,29.88,North,5,3.0,6.0,64,0.00,,,0.00,0,Wunderground v.1.15,2015-07-03 08:52:00,
2015-07-03 01:53:00,69.8,56.2,29.88,NE,50,0.0,3.0,62,0.00,,,0.00,0,Wunderground v.1.15,2015-07-03 08:53:00,
2015-07-03 01:54:00,68.7,56.0,29.88,North,9,2.0,3.0,64,0.00,,,0.00,0,Wunderground v.1.15,2015-07-03 08:54:00,
2015-07-03 01:55:00,68.6,55.9,29.88,North,9,4.0,4.0,64,0.00,,,0.00,0,Wunderground v.1.15,2015-07-03 08:55:00,
2015-07-03 01:56:00,68.6,55.9,29.88,North,9,2.0,4.0,64,0.00,,,0.00,0,Wunderground v.1.15,2015-07-03 08:56:00,
2015-07-03 01:57:00,68.5,55.8,29.88,North,9,1.0,4.0,64,0.00,,,0.00,0,Wunderground v.1.15,2015-07-03 08:57:00,
2015-07-03 01:58:00,68.5,56.3,29.88,North,9,3.0,4.0,65,0.00,,,0.00,0,Wunderground v.1.15,2015-07-03 08:58:00,
2015-07-03 01:59:00,69.5,56.3,29.88,NE,45,2.0,3.0,63,0.00,,,0.00,0,Wunderground v.1.15,2015-07-03 08:59:00,
2015-07-03 02:04:00,68.4,55.7,29.88,North,9,0.0,2.0,64,0.00,,,0.00,0,Wunderground v.1.15,2015-07-03 09:04:00,
2015-07-03 02:05:00,68.3,56.1,29.88,North,9,0.0,2.0,65,0.00,,,0.00,0,Wunderground v.1.15,2015-07-03 09:05:00,
2015-07-03 02:06:00,68.2,56.0,29.88,North,9,0.0,2.0,65,0.00,,,0.00,0,Wunderground v.1.15,2015-07-03 09:06:00,
2015-07-03 02:07:00,68.2,56.0,29.88,NNE,18,5.0,5.0,65,0.00,,,0.00,0,Wunderground v.1.15,2015-07-03 09:07:00,
2015-07-03 02:08:00,68.9,56.2,29.88,NNE,14,6.0,6.0,64,0.00,,,0.00,0,Wunderground v.1.15,2015-07-03 09:08:00,
2015-07-03 02:09:00,68.1,55.9,29.88,NNE,18,0.0,5.0,65,0.00,,,0.00,0,Wunderground v.1.15,2015-07-03 09:09:00,
2015-07-03 02:10:00,68.0,56.2,29.88,NNE,18,0.0,5.0,66,0.00,,,0.00,0,Wunderground v.1.15,2015-07-03 09:10:00,
2015-07-03 02:11:00,68.0,56.2,29.88,NNE,18,3.0,5.0,66,0.00,,,0.00,0,Wunderground v.1.15,2015-07-03 09:11:00,
2015-07-03 02:12:00,68.0,56.2,29.88,NNE,18,2.0,5.0,66,0.00,,,0.00,0,Wunderground v.1.15,2015-07-03 09:12:00,
2015-07-03 02:13:00,67.9,56.1,29.88,NNE,18,4.0,5.0,66,0.00,,,0.00,0,Wunderground v.1.15,2015-07-03 09:13:00,
2015-07-03 02:14:00,67.9,56.1,29.88,NNE,18,3.0,3.0,66,0.00,,,0.00,0,Wunderground v.1.15,2015-07-03 09:14:00,
2015-07-03 02:15:00,67.7,55.9,29.88,NNE,18,3.0,3.0,66,0.00,,,0.00,0,Wunderground v.1.15,2015-07-03 09:15:00,
2015-07-03 02:16:00,68.5,56.0,29.88,North,9,2.0,6.0,65,0.00,,,0.00,,weatherlink.com 1.10,2015-07-03 09:16:00,
2015-07-03 02:17:00,67.7,55.9,29.88,NNE,19,2.0,4.0,66,0.00,,,0.00,0,Wunderground v.1.15,2015-07-03 09:17:00,
2015-07-03 02:18:00,67.7,55.9,29.88,NNE,18,5.0,5.0,66,0.00,,,0.00,0,Wunderground v.1.15,2015-07-03 09:18:00,
2015-07-03 02:19:00,67.6,55.8,29.88,NNE,19,1.0,5.0,66,0.00,,,0.00,0,Wunderground v.1.15,2015-07-03 09:19:00,
2015-07-03 02:20:00,67.6,55.8,29.88,NNE,19,0.0,5.0,66,0.00,,,0.00,0,Wunderground v.1.15,2015-07-03 09:20:00,
2015-07-03 02:21:00,67.5,56.2,29.88,NNE,19,2.0,5.0,67,0.00,,,0.00,0,Wunderground v.1.15,2015-07-03 09:21:00,
2015-07-03 02:24:00,68.2,56.0,29.88,North,9,0.0,2.0,65,0.00,,,0.00,0,Wunderground v.1.15,2015-07-03 09:24:00,
2015-07-03 02:29:00,68.0,56.2,29.88,NNE,18,1.0,5.0,66,0.00,,,0.00,0,Wunderground v.1.15,2015-07-03 09:29:00,
2015-07-03 02:34:00,67.7,55.9,29.88,NNE,18,3.0,3.0,66,0.00,,,0.00,0,Wunderground v.1.15,2015-07-03 09:34:00,
2015-07-03 02:39:00,67.5,55.7,29.88,NNE,19,0.0,5.0,66,0.00,,,0.00,0,Wunderground v.1.15,2015-07-03 09:39:00,
2015-07-03 02:44:00,67.4,56.1,29.88,NNE,19,0.0,2.0,67,0.00,,,0.00,0,Wunderground v.1.15,2015-07-03 09:44:00,
2015-07-03 02:49:00,67.3,56.0,29.88,NNE,19,0.0,2.0,67,0.00,,,0.00,0,Wunderground v.1.15,2015-07-03 09:49:00,
2015-07-03 02:54:00,67.1,56.2,29.88,NNE,19,2.0,2.0,68,0.00,,,0.00,0,Wunderground v.1.15,2015-07-03 09:54:00,
2015-07-03 02:59:00,66.8,55.9,29.88,NNE,19,3.0,4.0,68,0.00,,,0.00,0,Wunderground v.1.15,2015-07-03 09:59:00,
2015-07-03 03:04:00,66.5,56.0,29.88,NNE,19,2.0,3.0,69,0.00,,,0.00,0,Wunderground v.1.15,2015-07-03 10:04:00,
2015-07-03 03:09:00,66.3,55.8,29.88,NNE,19,3.0,5.0,69,0.00,,,0.00,0,Wunderground v.1.15,2015-07-03 10:09:00,
2015-07-03 03:14:00,66.1,55.6,29.88,North,360,0.0,6.0,69,0.00,,,0.00,0,Wunderground v.1.15,2015-07-03 10:14:00,
2015-07-03 03:23:00,66.0,55.5,29.88,North,5,0.0,3.0,69,0.00,,,0.00,0,Wunderground v.1.15,2015-07-03 10:23:00,
2015-07-03 03:28:00,65.8,55.7,29.88,North,5,1.0,2.0,70,0.00,,,0.00,0,Wunderground v.1.15,2015-07-03 10:28:00,
2015-07-03 03:29:00,65.4,55.7,29.88,NNE,17,2.0,7.0,71,0.00,,,0.00,0,Wunderground v.1.15,2015-07-03 10:29:00,
2015-07-03 03:30:00,65.4,55.7,29.88,NNE,17,1.0,3.0,71,0.00,,,0.00,0,Wunderground v.1.15,2015-07-03 10:30:00,
2015-07-03 03:31:00,65.4,55.7,29.88,NNE,17,0.0,3.0,71,0.00,,,0.00,0,Wunderground v.1.15,2015-07-03 10:31:00,
2015-07-03 03:33:00,65.7,56.0,29.88,North,5,1.0,5.0,71,0.00,,,0.00,0,Wunderground v.1.15,2015-07-03 10:33:00,
2015-07-03 03:34:00,65.3,55.7,29.88,NNE,15,2.0,5.0,71,0.00,,,0.00,0,Wunderground v.1.15,2015-07-03 10:34:00,
2015-07-03 03:35:00,65.3,56.0,29.88,NNE,15,4.0,5.0,72,0.00,,,0.00,0,Wunderground v.1.15,2015-07-03 10:35:00,
2015-07-03 03:36:00,65.3,56.0,29.88,NNE,15,0.0,6.0,72,0.00,,,0.00,0,Wunderground v.1.15,2015-07-03 10:36:00,
2015-07-03 03:38:00,65.6,55.9,29.88,North,355,4.0,4.0,71,0.00,,,0.00,0,Wunderground v.1.15,2015-07-03 10:38:00,
2015-07-03 03:43:00,65.5,55.8,29.88,North,355,6.0,7.0,71,0.00,,,0.00,0,Wunderground v.1.15,2015-07-03 10:43:00,
2015-07-03 03:46:00,65.0,55.8,29.88,NNE,15,0.0,3.0,72,0.00,,,0.00,0,Wunderground v.1.15,2015-07-03 10:46:00,
2015-07-03 03:47:00,65.0,56.1,29.88,NNE,15,1.0,3.0,73,0.00,,,0.00,0,Wunderground v.1.15,2015-07-03 10:47:00,
2015-07-03 03:49:00,65.4,55.7,29.88,NNE,17,0.0,3.0,71,0.00,,,0.00,0,Wunderground v.1.15,2015-07-03 10:49:00,
2015-07-03 03:50:00,64.9,56.0,29.88,North,355,3.0,4.0,73,0.00,,,0.00,0,Wunderground v.1.15,2015-07-03 10:50:00,
2015-07-03 03:51:00,64.8,55.9,29.88,North,360,3.0,6.0,73,0.00,,,0.00,0,Wunderground v.1.15,2015-07-03 10:51:00,
2015-07-03 03:52:00,64.8,55.9,29.88,North,351,5.0,7.0,73,0.00,,,0.00,0,Wunderground v.1.15,2015-07-03 10:52:00,
2015-07-03 03:53:00,64.8,55.9,29.88,North,355,2.0,7.0,73,0.00,,,0.00,0,Wunderground v.1.15,2015-07-03 10:53:00,
2015-07-03 03:54:00,65.3,56.0,29.88,NNE,15,2.0,6.0,72,0.00,,,0.00,0,Wunderground v.1.15,2015-07-03 10:54:00,
2015-07-03 03:59:00,65.2,55.9,29.88,NNE,15,0.0,2.0,72,0.00,,,0.00,0,Wunderground v.1.15,2015-07-03 10:59:00,
2015-07-03 04:04:00,65.0,55.8,29.88,NNE,15,0.0,3.0,72,0.00,,,0.00,0,Wunderground v.1.15,2015-07-03 11:04:00,
2015-07-03 04:09:00,64.8,55.9,29.88,North,360,6.0,6.0,73,0.00,,,0.00,0,Wunderground v.1.15,2015-07-03 11:09:00,
2015-07-03 04:14:00,64.7,55.8,29.88,North,351,2.0,7.0,73,0.00,,,0.00,0,Wunderground v.1.15,2015-07-03 11:14:00,
2015-07-03 04:23:00,64.4,55.6,29.89,North,350,4.0,4.0,73,0.00,,,0.00,0,Wunderground v.1.15,2015-07-03 11:23:00,
2015-07-03 04:28:00,64.3,55.8,29.88,North,350,3.0,4.0,74,0.00,,,0.00,0,Wunderground v.1.15,2015-07-03 11:28:00,
2015-07-03 04:33:00,64.1,55.6,29.89,North,350,2.0,4.0,74,0.00,,,0.00,0,Wunderground v.1.15,2015-07-03 11:33:00,
2015-07-03 04:38:00,64.0,55.9,29.89,North,349,2.0,3.0,75,0.00,,,0.00,0,Wunderground v.1.15,2015-07-03 11:38:00,
2015-07-03 04:43:00,63.8,55.7,29.89,North,349,0.0,4.0,75,0.00,,,0.00,0,Wunderground v.1.15,2015-07-03 11:43:00,
2015-07-03 04:48:00,63.7,56.0,29.89,North,349,1.0,3.0,76,0.00,,,0.00,0,Wunderground v.1.15,2015-07-03 11:48:00,
2015-07-03 04:53:00,63.6,55.9,29.89,North,349,2.0,3.0,76,0.00,,,0.00,0,Wunderground v.1.15,2015-07-03 11:53:00,
2015-07-03 04:58:00,63.5,55.8,29.89,North,349,0.0,1.0,76,0.00,,,0.00,0,Wunderground v.1.15,2015-07-03 11:58:00,
2015-07-03 05:04:00,63.3,56.0,29.89,NNW,346,2.0,5.0,77,0.00,,,0.00,0,Wunderground v.1.15,2015-07-03 12:04:00,
2015-07-03 05:09:00,63.2,56.2,29.90,NNW,346,0.0,1.0,78,0.00,,,0.00,0,Wunderground v.1.15,2015-07-03 12:09:00,
2015-07-03 05:14:00,63.1,56.1,29.90,NNW,346,1.0,3.0,78,0.00,,,0.00,0,Wunderground v.1.15,2015-07-03 12:14:00,
2015-07-03 05:23:00,62.9,55.9,29.90,NNW,346,0.0,1.0,78,0.00,,,0.00,0,Wunderground v.1.15,2015-07-03 12:23:00,
2015-07-03 05:28:00,62.7,56.1,29.90,NNW,345,2.0,2.0,79,0.00,,,0.00,5,Wunderground v.1.15,2015-07-03 12:28:00,
2015-07-03 05:33:00,62.5,56.2,29.90,NNW,345,1.0,3.0,80,0.00,,,0.00,7,Wunderground v.1.15,2015-07-03 12:33:00,
2015-07-03 05:38:00,62.3,56.0,29.90,NNW,345,2.0,2.0,80,0.00,,,0.00,11,Wunderground v.1.15,2015-07-03 12:38:00,
2015-07-03 05:43:00,62.2,56.3,29.90,NNW,345,1.0,4.0,81,0.00,,,0.00,12,Wunderground v.1.15,2015-07-03 12:43:00,
2015-07-03 05:48:00,62.1,56.2,29.90,NNW,345,0.0,2.0,81,0.00,,,0.00,14,Wunderground v.1.15,2015-07-03 12:48:00,
2015-07-03 05:53:00,62.0,56.1,29.91,NNW,345,0.0,2.0,81,0.00,,,0.00,18,Wunderground v.1.15,2015-07-03 12:53:00,
2015-07-03 05:58:00,62.0,56.1,29.91,NNW,345,0.0,0.0,81,0.00,,,0.00,23,Wunderground v.1.15,2015-07-03 12:58:00,
2015-07-03 06:03:00,62.0,56.1,29.91,NNW,345,0.0,0.0,81,0.00,,,0.00,28,Wunderground v.1.15,2015-07-03 13:03:00,
2015-07-03 06:08:00,62.0,56.4,29.91,NNW,345,0.0,0.0,82,0.00,,,0.00,37,Wunderground v.1.15,2015-07-03 13:08:00,
2015-07-03 06:13:00,62.0,56.4,29.91,NNW,345,2.0,3.0,82,0.00,,,0.00,44,Wunderground v.1.15,2015-07-03 13:13:00,
2015-07-03 06:18:00,62.0,56.4,29.91,NNW,345,1.0,2.0,82,0.00,,,0.00,54,Wunderground v.1.15,2015-07-03 13:18:00,
2015-07-03 06:24:00,62.1,56.5,29.91,NNW,345,2.0,4.0,82,0.00,,,0.00,56,Wunderground v.1.15,2015-07-03 13:24:00,
2015-07-03 06:29:00,62.1,56.5,29.91,NNW,344,3.0,4.0,82,0.00,,,0.00,77,Wunderground v.1.15,2015-07-03 13:29:00,
2015-07-03 06:34:00,62.2,56.6,29.91,NNW,344,0.0,5.0,82,0.00,,,0.00,91,Wunderground v.1.15,2015-07-03 13:34:00,
2015-07-03 06:39:00,62.3,56.7,29.91,NNW,344,2.0,3.0,82,0.00,,,0.00,102,Wunderground v.1.15,2015-07-03 13:39:00,
2015-07-03 06:44:00,62.5,56.9,29.91,NNW,344,2.0,3.0,82,0.00,,,0.00,118,Wunderground v.1.15,2015-07-03 13:44:00,
2015-07-03 06:49:00,62.6,56.7,29.91,NNW,342,2.0,3.0,81,0.00,,,0.00,134,Wunderground v.1.15,2015-07-03 13:49:00,
2015-07-03 06:54:00,62.8,56.9,29.91,NNW,342,0.0,3.0,81,0.00,,,0.00,151,Wunderground v.1.15,2015-07-03 13:54:00,
2015-07-03 06:59:00,63.1,57.2,29.91,NNW,342,0.0,1.0,81,0.00,,,0.00,167,Wunderground v.1.15,2015-07-03 13:59:00,
2015-07-03 07:04:00,63.4,57.1,29.91,NNW,329,5.0,6.0,80,0.00,,,0.00,183,Wunderground v.1.15,2015-07-03 14:04:00,
2015-07-03 07:09:00,63.7,57.4,29.91,NW,325,5.0,5.0,80,0.00,,,0.00,199,Wunderground v.1.15,2015-07-03 14:09:00,
2015-07-03 07:14:00,63.9,57.3,29.91,NW,325,2.0,5.0,79,0.00,,,0.00,211,Wunderground v.1.15,2015-07-03 14:14:00,
2015-07-03 07:19:00,64.1,57.5,29.91,NW,325,3.0,5.0,79,0.00,,,0.00,225,Wunderground v.1.15,2015-07-03 14:19:00,
2015-07-03 07:24:00,64.3,57.3,29.91,NW,325,3.0,5.0,78,0.00,,,0.00,227,Wunderground v.1.15,2015-07-03 14:24:00,
2015-07-03 07:29:00,64.6,57.6,29.91,NW,325,4.0,4.0,78,0.00,,,0.00,251,Wunderground v.1.15,2015-07-03 14:29:00,
2015-07-03 07:34:00,64.9,57.5,29.91,NW,325,2.0,6.0,77,0.00,,,0.00,267,Wunderground v.1.15,2015-07-03 14:34:00,
2015-07-03 07:39:00,65.2,57.8,29.91,NW,325,2.0,3.0,77,0.00,,,0.00,279,Wunderground v.1.15,2015-07-03 14:39:00,
2015-07-03 07:44:00,65.6,57.8,29.91,NW,323,0.0,5.0,76,0.00,,,0.00,294,Wunderground v.1.15,2015-07-03 14:44:00,
2015-07-03 07:49:00,65.8,57.7,29.91,WNW,300,3.0,5.0,75,0.00,,,0.00,309,Wunderground v.1.15,2015-07-03 14:49:00,
2015-07-03 07:54:00,66.1,57.9,29.91,NW,326,5.0,7.0,75,0.00,,,0.00,322,Wunderground v.1.15,2015-07-03 14:54:00,
2015-07-03 07:59:00,66.3,58.1,29.92,NNW,336,6.0,6.0,75,0.00,,,0.00,336,Wunderground v.1.15,2015-07-03 14:59:00,
2015-07-03 08:04:00,66.6,58.1,29.91,NNE,28,0.0,7.0,74,0.00,,,0.00,348,Wunderground v.1.15,2015-07-03 15:04:00,
2015-07-03 08:09:00,66.8,58.6,29.92,NNW,327,3.0,4.0,75,0.00,,,0.00,362,Wunderground v.1.15,2015-07-03 15:09:00,
2015-07-03 08:14:00,67.0,58.4,29.92,NNW,331,5.0,9.0,74,0.00,,,0.00,376,Wunderground v.1.15,2015-07-03 15:14:00,
2015-07-03 08:23:00,67.1,58.9,29.92,NW,325,0.0,4.0,75,0.00,,,0.00,387,Wunderground v.1.15,2015-07-03 15:23:00,
2015-07-03 08:28:00,67.5,59.3,29.92,NW,324,3.0,5.0,75,0.00,,,0.00,413,Wunderground v.1.15,2015-07-03 15:28:00,
2015-07-03 08:33:00,67.6,59.0,29.92,NW,324,3.0,4.0,74,0.00,,,0.00,427,Wunderground v.1.15,2015-07-03 15:33:00,
2015-07-03 08:38:00,67.9,59.3,29.92,NW,323,4.0,4.0,74,0.00,,,0.00,441,Wunderground v.1.15,2015-07-03 15:38:00,
2015-07-03 08:43:00,68.2,59.2,29.92,NNW,335,3.0,5.0,73,0.00,,,0.00,455,Wunderground v.1.15,2015-07-03 15:43:00,
2015-07-03 08:48:00,68.3,58.9,29.92,NNW,336,5.0,6.0,72,0.00,,,0.00,469,Wunderground v.1.15,2015-07-03 15:48:00,
2015-07-03 08:53:00,68.5,59.5,29.92,WNW,301,4.0,8.0,73,0.00,,,0.00,482,Wunderground v.1.15,2015-07-03 15:53:00,
2015-07-03 08:58:00,68.8,59.0,29.92,NNW,337,4.0,4.0,71,0.00,,,0.00,497,Wunderground v.1.15,2015-07-03 15:58:00,
2015-07-03 09:03:00,68.9,59.5,29.92,NNW,331,2.0,6.0,72,0.00,,,0.00,510,Wunderground v.1.15,2015-07-03 16:03:00,
2015-07-03 09:08:00,69.4,59.6,29.92,NW,324,4.0,4.0,71,0.00,,,0.00,522,Wunderground v.1.15,2015-07-03 16:08:00,
2015-07-03 09:13:00,69.7,59.1,29.92,NW,315,3.0,7.0,69,0.00,,,0.00,534,Wunderground v.1.15,2015-07-03 16:13:00,
2015-07-03 09:23:00,70.4,59.7,29.92,NW,326,5.0,5.0,69,0.00,,,0.00,550,Wunderground v.1.15,2015-07-03 16:23:00,
2015-07-03 09:28:00,71.0,59.5,29.92,NW,325,8.0,8.0,67,0.00,,,0.00,573,Wunderground v.1.15,2015-07-03 16:28:00,
2015-07-03 09:33:00,71.3,59.4,29.92,NW,315,4.0,7.0,66,0.00,,,0.00,587,Wunderground v.1.15,2015-07-03 16:33:00,
2015-07-03 09:38:00,71.3,59.4,29.92,NW,319,3.0,7.0,66,0.00,,,0.00,599,Wunderground v.1.15,2015-07-03 16:38:00,
2015-07-03 09:43:00,71.5,59.1,29.91,NW,318,0.0,9.0,65,0.00,,,0.00,610,Wunderground v.1.15,2015-07-03 16:43:00,
2015-07-03 09:48:00,71.9,59.5,29.91,NNW,342,6.0,6.0,65,0.00,,,0.00,622,Wunderground v.1.15,2015-07-03 16:48:00,
2015-07-03 09:53:00,72.4,59.1,29.91,NW,325,3.0,7.0,63,0.00,,,0.00,636,Wunderground v.1.15,2015-07-03 16:53:00,
2015-07-03 09:58:00,73.7,58.9,29.91,WNW,294,5.0,5.0,60,0.00,,,0.00,649,Wunderground v.1.15,2015-07-03 16:58:00,
2015-07-03 10:03:00,74.1,58.9,29.91,WNW,302,4.0,7.0,59,0.00,,,0.00,661,Wunderground v.1.15,2015-07-03 17:03:00,
2015-07-03 10:08:00,74.1,58.4,29.91,NNW,337,4.0,4.0,58,0.00,,,0.00,671,Wunderground v.1.15,2015-07-03 17:08:00,
2015-07-03 10:13:00,74.7,58.5,29.91,WNW,288,5.0,9.0,57,0.00,,,0.00,682,Wunderground v.1.15,2015-07-03 17:13:00,
2015-07-03 10:18:00,75.9,59.6,29.91,WNW,283,9.0,9.0,57,0.00,,,0.00,689,Wunderground v.1.15,2015-07-03 17:18:00,
2015-07-03 10:24:00,76.0,58.7,29.91,NW,315,3.0,9.0,55,0.00,,,0.00,696,Wunderground v.1.15,2015-07-03 17:24:00,
2015-07-03 10:29:00,76.4,59.0,29.91,NNW,342,2.0,8.0,55,0.00,,,0.00,712,Wunderground v.1.15,2015-07-03 17:29:00,
2015-07-03 10:34:00,76.5,59.6,29.91,NNW,344,5.0,11.0,56,0.00,,,0.00,724,Wunderground v.1.15,2015-07-03 17:34:00,
2015-07-03 10:39:00,76.4,59.5,29.91,North,360,10.0,10.0,56,0.00,,,0.00,733,Wunderground v.1.15,2015-07-03 17:39:00,
2015-07-03 10:44:00,76.9,59.5,29.91,NW,306,2.0,10.0,55,0.00,,,0.00,745,Wunderground v.1.15,2015-07-03 17:44:00,
2015-07-03 10:49:00,76.9,60.0,29.90,NW,306,3.0,5.0,56,0.00,,,0.00,751,Wunderground v.1.15,2015-07-03 17:49:00,
2015-07-03 10:54:00,77.5,60.6,29.90,NNW,347,0.0,7.0,56,0.00,,,0.00,765,Wunderground v.1.15,2015-07-03 17:54:00,
2015-07-03 10:59:00,78.3,60.3,29.90,NNE,22,4.0,6.0,54,0.00,,,0.00,772,Wunderground v.1.15,2015-07-03 17:59:00,
2015-07-03 11:04:00,78.2,60.2,29.90,NNE,26,1.0,6.0,54,0.00,,,0.00,780,Wunderground v.1.15,2015-07-03 18:04:00,
2015-07-03 11:09:00,78.3,59.8,29.90,NNE,18,3.0,7.0,53,0.00,,,0.00,789,Wunderground v.1.15,2015-07-03 18:09:00,
2015-07-03 11:14:00,78.5,59.4,29.90,North,10,2.0,11.0,52,0.00,,,0.00,795,Wunderground v.1.15,2015-07-03 18:14:00,
2015-07-03 11:23:00,78.8,59.1,29.90,NW,321,7.0,7.0,51,0.00,,,0.00,803,Wunderground v.1.15,2015-07-03 18:23:00,
2015-07-03 11:27:00,79.1,60.0,29.90,NW,323,5.0,7.0,52,0.00,,,0.00,816,Wunderground v.1.15,2015-07-03 18:27:00,
2015-07-03 11:32:00,79.9,59.6,29.90,WNW,287,8.0,8.0,50,0.00,,,0.00,823,Wunderground v.1.15,2015-07-03 18:32:00,
2015-07-03 11:37:00,81.1,60.7,29.89,NW,313,5.0,8.0,50,0.00,,,0.00,830,Wunderground v.1.15,2015-07-03 18:37:00,
2015-07-03 11:42:00,81.1,59.6,29.89,NW,311,4.0,8.0,48,0.00,,,0.00,838,Wunderground v.1.15,2015-07-03 18:42:00,
2015-07-03 11:47:00,81.4,59.8,29.89,SW,233,4.0,9.0,48,0.00,,,0.00,842,Wunderground v.1.15,2015-07-03 18:47:00,
2015-07-03 11:52:00,81.7,60.1,29.89,North,5,0.0,6.0,48,0.00,,,0.00,847,Wunderground v.1.15,2015-07-03 18:52:00,
2015-07-03 11:57:00,81.4,60.4,29.89,North,360,6.0,8.0,49,0.00,,,0.00,854,Wunderground v.1.15,2015-07-03 18:57:00,
2015-07-03 12:02:00,81.6,60.0,29.89,NNW,348,6.0,7.0,48,0.00,,,0.00,856,Wunderground v.1.15,2015-07-03 19:02:00,
2015-07-03 12:08:00,82.0,60.4,29.89,NNW,336,0.0,8.0,48,0.00,,,0.00,861,Wunderground v.1.15,2015-07-03 19:08:00,
2015-07-03 12:13:00,82.3,60.6,29.89,NNW,334,6.0,9.0,48,0.00,,,0.00,867,Wunderground v.1.15,2015-07-03 19:13:00,
2015-07-03 12:18:00,82.6,60.3,29.89,NNW,345,2.0,10.0,47,0.00,,,0.00,868,Wunderground v.1.15,2015-07-03 19:18:00,
2015-07-03 12:24:00,82.8,60.5,29.88,NW,323,4.0,5.0,47,0.00,,,0.00,868,Wunderground v.1.15,2015-07-03 19:24:00,
2015-07-03 12:29:00,83.3,61.0,29.88,North,349,6.0,7.0,47,0.00,,,0.00,877,Wunderground v.1.15,2015-07-03 19:29:00,
2015-07-03 12:30:00,84.2,61.8,29.88,NE,34,6.0,8.0,47,0.00,,,0.00,886,Wunderground v.1.15,2015-07-03 19:30:00,
2015-07-03 12:31:00,84.3,61.3,29.87,NNE,28,4.0,8.0,46,0.00,,,0.00,886,Wunderground v.1.15,2015-07-03 19:31:00,
2015-07-03 12:32:00,84.4,61.4,29.87,NNE,30,8.0,8.0,46,0.00,,,0.00,886,Wunderground v.1.15,2015-07-03 19:32:00,
2015-07-03 12:33:00,84.3,60.6,29.87,NE,47,3.0,8.0,45,0.00,,,0.00,888,Wunderground v.1.15,2015-07-03 19:33:00,
2015-07-03 12:34:00,83.3,61.0,29.88,NW,326,2.0,11.0,47,0.00,,,0.00,877,Wunderground v.1.15,2015-07-03 19:34:00,
2015-07-03 12:36:00,84.2,60.6,29.87,NNW,337,5.0,10.0,45,0.00,,,0.00,889,Wunderground v.1.15,2015-07-03 19:36:00,
2015-07-03 12:37:00,84.3,60.6,29.87,NNW,337,4.0,10.0,45,0.00,,,0.00,889,Wunderground v.1.15,2015-07-03 19:37:00,
2015-07-03 12:39:00,83.6,61.2,29.88,NW,309,4.0,7.0,47,0.00,,,0.00,882,Wunderground v.1.15,2015-07-03 19:39:00,
2015-07-03 12:44:00,83.8,60.8,29.88,NW,307,2.0,7.0,46,0.00,,,0.00,884,Wunderground v.1.15,2015-07-03 19:44:00,
2015-07-03 12:49:00,84.2,61.8,29.88,NNE,32,4.0,8.0,47,0.00,,,0.00,886,Wunderground v.1.15,2015-07-03 19:49:00,
2015-07-03 12:54:00,84.1,61.1,29.87,North,355,10.0,10.0,46,0.00,,,0.00,884,Wunderground v.1.15,2015-07-03 19:54:00,
2015-07-03 12:59:00,84.6,61.5,29.87,NNW,330,6.0,8.0,46,0.00,,,0.00,891,Wunderground v.1.15,2015-07-03 19:59:00,
2015-07-03 13:04:00,84.6,60.9,29.87,North,350,0.0,8.0,45,0.00,,,0.00,889,Wunderground v.1.15,2015-07-03 20:04:00,
2015-07-03 13:09:00,86.2,62.4,29.87,NNW,348,0.0,3.0,45,0.00,,,0.00,889,Wunderground v.1.15,2015-07-03 20:09:00,
2015-07-03 13:14:00,87.0,62.5,29.86,North,355,0.0,7.0,44,0.00,,,0.00,889,Wunderground v.1.15,2015-07-03 20:14:00,
2015-07-03 13:23:00,87.8,62.5,29.86,North,355,2.0,7.0,43,0.00,,,0.00,891,Wunderground v.1.15,2015-07-03 20:23:00,
2015-07-03 13:28:00,87.5,63.5,29.86,NNW,346,9.0,9.0,45,0.00,,,0.00,888,Wunderground v.1.15,2015-07-03 20:28:00,
2015-07-03 13:33:00,87.4,63.5,29.86,NW,314,3.0,9.0,45,0.00,,,0.00,889,Wunderground v.1.15,2015-07-03 20:33:00,
2015-07-03 13:38:00,87.4,62.8,29.86,NW,306,5.0,7.0,44,0.00,,,0.00,888,Wunderground v.1.15,2015-07-03 20:38:00,
2015-07-03 13:43:00,87.3,63.4,29.86,NW,312,2.0,9.0,45,0.00,,,0.00,886,Wunderground v.1.15,2015-07-03 20:43:00,
2015-07-03 13:48:00,87.5,63.5,29.85,NW,311,5.0,5.0,45,0.00,,,0.00,884,Wunderground v.1.15,2015-07-03 20:48:00,
2015-07-03 13:53:00,87.7,63.7,29.85,NW,309,4.0,8.0,45,0.00,,,0.00,879,Wunderground v.1.15,2015-07-03 20:53:00,
2015-07-03 13:58:00,87.9,63.9,29.85,WNW,297,3.0,5.0,45,0.00,,,0.00,874,Wunderground v.1.15,2015-07-03 20:58:00,
2015-07-03 14:03:00,89.3,64.5,29.85,WNW,302,3.0,6.0,44,0.00,,,0.00,875,Wunderground v.1.15,2015-07-03 21:03:00,
2015-07-03 14:08:00,89.3,63.9,29.85,WNW,288,5.0,7.0,43,0.00,,,0.00,870,Wunderground v.1.15,2015-07-03 21:08:00,
2015-07-03 14:13:00,89.8,63.6,29.85,West,280,4.0,7.0,42,0.00,,,0.00,865,Wunderground v.1.15,2015-07-03 21:13:00,
2015-07-03 14:18:00,89.6,64.1,29.84,NW,319,7.0,7.0,43,0.00,,,0.00,856,Wunderground v.1.15,2015-07-03 21:18:00,
2015-07-03 14:23:00,89.4,64.0,29.84,NW,316,4.0,7.0,43,0.00,,,0.00,856,Wunderground v.1.15,2015-07-03 21:23:00,
2015-07-03 14:28:00,89.4,64.0,29.84,NW,319,5.0,5.0,43,0.00,,,0.00,856,Wunderground v.1.15,2015-07-03 21:28:00,
2015-07-03 14:33:00,90.2,64.7,29.84,NW,319,5.0,8.0,43,0.00,,,0.00,840,Wunderground v.1.15,2015-07-03 21:33:00,
2015-07-03 14:38:00,90.3,64.1,29.84,WNW,302,1.0,4.0,42,0.00,,,0.00,831,Wunderground v.1.15,2015-07-03 21:38:00,
2015-07-03 14:43:00,90.9,63.9,29.84,NNW,328,7.0,10.0,41,0.00,,,0.00,831,Wunderground v.1.15,2015-07-03 21:43:00,
2015-07-03 14:48:00,91.1,63.4,29.84,NW,322,6.0,6.0,40,0.00,,,0.00,835,Wunderground v.1.15,2015-07-03 21:48:00,
2015-07-03 14:53:00,91.0,62.6,29.83,WNW,301,5.0,9.0,39,0.00,,,0.00,828,Wunderground v.1.15,2015-07-03 21:53:00,
2015-07-03 14:58:00,91.3,62.1,29.83,WNW,293,0.0,5.0,38,0.00,,,0.00,824,Wunderground v.1.15,2015-07-03 21:58:00,
2015-07-03 15:03:00,91.6,60.9,29.83,North,9,8.0,12.0,36,0.00,,,0.00,821,Wunderground v.1.15,2015-07-03 22:03:00,
2015-07-03 15:08:00,91.8,62.6,29.83,NNW,342,3.0,5.0,38,0.00,,,0.00,812,Wunderground v.1.15,2015-07-03 22:08:00,
2015-07-03 15:13:00,92.2,59.8,29.83,North,350,8.0,10.0,34,0.00,,,0.00,805,Wunderground v.1.15,2015-07-03 22:13:00,
2015-07-03 15:18:00,92.1,59.7,29.83,NW,324,7.0,7.0,34,0.00,,,0.00,803,Wunderground v.1.15,2015-07-03 22:18:00,
2015-07-03 15:24:00,91.4,56.5,29.82,NNW,338,7.0,10.0,31,0.00,,,0.00,795,Wunderground v.1.15,2015-07-03 22:24:00,
2015-07-03 15:29:00,91.4,57.4,29.82,NNW,330,4.0,10.0,32,0.00,,,0.00,788,Wunderground v.1.15,2015-07-03 22:29:00,
2015-07-03 15:34:00,91.6,57.6,29.82,WNW,300,9.0,10.0,32,0.00,,,0.00,777,Wunderground v.1.15,2015-07-03 22:34:00,
2015-07-03 15:39:00,92.0,57.0,29.82,NNE,24,8.0,8.0,31,0.00,,,0.00,772,Wunderground v.1.15,2015-07-03 22:39:00,
2015-07-03 15:44:00,92.3,58.2,29.82,NW,318,8.0,14.0,32,0.00,,,0.00,763,Wunderground v.1.15,2015-07-03 22:44:00,
2015-07-03 15:49:00,92.4,57.4,29.82,NNW,338,10.0,11.0,31,0.00,,,0.00,747,Wunderground v.1.15,2015-07-03 22:49:00,
2015-07-03 15:54:00,92.0,57.9,29.81,NNE,24,8.0,14.0,32,0.00,,,0.00,738,Wunderground v.1.15,2015-07-03 22:54:00,
2015-07-03 15:59:00,91.5,56.6,29.81,NNE,32,8.0,9.0,31,0.00,,,0.00,728,Wunderground v.1.15,2015-07-03 22:59:00,
2015-07-03 16:04:00,91.6,57.6,29.81,North,350,7.0,11.0,32,0.00,,,0.00,719,Wunderground v.1.15,2015-07-03 23:04:00,
2015-07-03 16:09:00,91.7,57.7,29.80,North,355,8.0,9.0,32,0.00,,,0.00,707,Wunderground v.1.15,2015-07-03 23:09:00,
2015-07-03 16:14:00,91.9,56.0,29.80,NW,310,6.0,9.0,30,0.00,,,0.00,698,Wunderground v.1.15,2015-07-03 23:14:00,
2015-07-03 16:23:00,92.6,55.7,29.80,NNW,348,0.0,5.0,29,0.00,,,0.00,686,Wunderground v.1.15,2015-07-03 23:23:00,
2015-07-03 16:28:00,92.5,54.7,29.80,NW,321,6.0,6.0,28,0.00,,,0.00,664,Wunderground v.1.15,2015-07-03 23:28:00,
2015-07-03 16:34:00,92.3,55.4,29.80,North,360,0.0,11.0,29,0.00,,,0.00,654,Wunderground v.1.15,2015-07-03 23:34:00,
2015-07-03 16:39:00,92.4,55.5,29.80,NNW,348,6.0,8.0,29,0.00,,,0.00,642,Wunderground v.1.15,2015-07-03 23:39:00,
2015-07-03 16:44:00,92.5,55.6,29.79,NW,321,5.0,10.0,29,0.00,,,0.00,631,Wunderground v.1.15,2015-07-03 23:44:00,
2015-07-03 16:49:00,92.5,55.6,29.79,WNW,302,5.0,12.0,29,0.00,,,0.00,619,Wunderground v.1.15,2015-07-03 23:49:00,
2015-07-03 16:54:00,92.3,55.4,29.79,NNW,332,7.0,12.0,29,0.00,,,0.00,606,Wunderground v.1.15,2015-07-03 23:54:00,
2015-07-03 16:59:00,92.3,56.4,29.79,NW,315,3.0,6.0,30,0.00,,,0.00,596,Wunderground v.1.15,2015-07-03 23:59:00,
2015-07-03 17:04:00,92.4,56.5,29.79,WNW,296,10.0,11.0,30,0.00,,,0.00,584,Wunderground v.1.15,2015-07-04 00:04:00,
2015-07-03 17:09:00,92.4,56.5,29.79,NNW,334,7.0,10.0,30,0.00,,,0.00,570,Wunderground v.1.15,2015-07-04 00:09:00,
2015-07-03 17:14:00,91.9,55.1,29.79,North,355,6.0,13.0,29,0.00,,,0.00,554,Wunderground v.1.15,2015-07-04 00:14:00,
2015-07-03 17:23:00,91.8,56.9,29.78,NNW,328,5.0,7.0,31,0.00,,,0.00,527,Wunderground v.1.15,2015-07-04 00:23:00,
2015-07-03 17:28:00,91.5,52.8,29.78,NW,317,6.0,11.0,27,0.00,,,0.00,519,Wunderground v.1.15,2015-07-04 00:28:00,
2015-07-03 17:33:00,91.5,55.7,29.78,NW,325,10.0,13.0,30,0.00,,,0.00,504,Wunderground v.1.15,2015-07-04 00:33:00,
2015-07-03 17:38:00,91.6,57.6,29.78,NNW,340,2.0,13.0,32,0.00,,,0.00,490,Wunderground v.1.15,2015-07-04 00:38:00,
2015-07-03 17:43:00,91.7,58.5,29.78,NNW,329,6.0,13.0,33,0.00,,,0.00,478,Wunderground v.1.15,2015-07-04 00:43:00,
2015-07-03 17:53:00,91.5,59.2,29.78,NNW,345,7.0,11.0,34,0.00,,,0.00,450,Wunderground v.1.15,2015-07-04 00:53:00,
2015-07-03 17:58:00,91.1,60.4,29.78,North,5,12.0,12.0,36,0.00,,,0.00,436,Wunderground v.1.15,2015-07-04 00:58:00,
2015-07-03 18:03:00,90.6,60.8,29.77,NNE,12,6.0,12.0,37,0.00,,,0.00,420,Wunderground v.1.15,2015-07-04 01:03:00,
2015-07-03 18:08:00,90.4,60.6,29.77,North,355,10.0,11.0,37,0.00,,,0.00,408,Wunderground v.1.15,2015-07-04 01:08:00,
2015-07-03 18:13:00,90.0,61.0,29.77,NNW,331,6.0,15.0,38,0.00,,,0.00,394,Wunderground v.1.15,2015-07-04 01:13:00,
2015-07-03 18:18:00,89.5,61.3,29.77,NNW,334,12.0,12.0,39,0.00,,,0.00,380,Wunderground v.1.15,2015-07-04 01:18:00,
2015-07-03 18:23:00,89.2,61.0,29.77,NNW,340,6.0,12.0,39,0.00,,,0.00,378,Wunderground v.1.15,2015-07-04 01:23:00,
2015-07-03 18:28:00,88.8,62.1,29.77,NNW,344,5.0,11.0,41,0.00,,,0.00,353,Wunderground v.1.15,2015-07-04 01:28:00,
2015-07-03 18:33:00,88.4,62.4,29.77,NNW,327,9.0,12.0,42,0.00,,,0.00,339,Wunderground v.1.15,2015-07-04 01:33:00,
2015-07-03 18:34:00,87.0,63.1,29.77,NNW,341,8.0,10.0,45,0.00,,,0.00,283,Wunderground v.1.15,2015-07-04 01:34:00,
2015-07-03 18:35:00,87.0,63.1,29.77,North,350,12.0,17.0,45,0.00,,,0.00,281,Wunderground v.1.15,2015-07-04 01:35:00,
2015-07-03 18:36:00,86.9,63.0,29.78,NNW,338,5.0,17.0,45,0.00,,,0.00,276,Wunderground v.1.15,2015-07-04 01:36:00,
2015-07-03 18:37:00,86.8,62.9,29.77,NNE,15,3.0,17.0,45,0.00,,,0.00,274,Wunderground v.1.15,2015-07-04 01:37:00,
2015-07-03 18:38:00,87.8,62.5,29.77,NNW,331,6.0,14.0,43,0.00,,,0.00,327,Wunderground v.1.15,2015-07-04 01:38:00,
2015-07-03 18:39:00,86.7,62.8,29.78,NNW,336,10.0,17.0,45,0.00,,,0.00,269,Wunderground v.1.15,2015-07-04 01:39:00,
2015-07-03 18:40:00,86.5,62.6,29.78,NNE,27,11.0,11.0,45,0.00,,,0.00,267,Wunderground v.1.15,2015-07-04 01:40:00,
2015-07-03 18:41:00,86.4,62.5,29.77,NNW,345,7.0,11.0,45,0.00,,,0.00,264,Wunderground v.1.15,2015-07-04 01:41:00,
2015-07-03 18:42:00,86.2,62.4,29.77,North,350,7.0,11.0,45,0.00,,,0.00,260,Wunderground v.1.15,2015-07-04 01:42:00,
2015-07-03 18:43:00,87.4,62.8,29.77,North,349,9.0,14.0,44,0.00,,,0.00,311,Wunderground v.1.15,2015-07-04 01:43:00,
2015-07-03 18:48:00,87.1,63.2,29.77,NNW,331,5.0,7.0,45,0.00,,,0.00,295,Wunderground v.1.15,2015-07-04 01:48:00,
2015-07-03 18:50:00,85.6,62.4,29.77,NW,321,6.0,12.0,46,0.00,,,0.00,239,Wunderground v.1.15,2015-07-04 01:50:00,
2015-07-03 18:51:00,85.5,62.4,29.77,NW,322,7.0,12.0,46,0.00,,,0.00,236,Wunderground v.1.15,2015-07-04 01:51:00,
2015-07-03 18:52:00,85.5,63.0,29.78,NW,318,5.0,12.0,47,0.00,,,0.00,234,Wunderground v.1.15,2015-07-04 01:52:00,
2015-07-03 18:54:00,87.0,63.1,29.77,WNW,296,6.0,17.0,45,0.00,,,0.00,279,Wunderground v.1.15,2015-07-04 01:54:00,
2015-07-03 18:55:00,85.2,62.1,29.78,NW,313,4.0,14.0,46,0.00,,,0.00,223,Wunderground v.1.15,2015-07-04 01:55:00,
2015-07-03 18:57:00,85.0,62.5,29.78,NNW,328,7.0,14.0,47,0.00,,,0.00,218,Wunderground v.1.15,2015-07-04 01:57:00,
2015-07-03 18:58:00,85.0,62.5,29.78,NNW,336,5.0,14.0,47,0.00,,,0.00,216,Wunderground v.1.15,2015-07-04 01:58:00,
2015-07-03 18:59:00,86.4,62.5,29.77,North,9,10.0,11.0,45,0.00,,,0.00,264,Wunderground v.1.15,2015-07-04 01:59:00,
2015-07-03 19:00:00,84.9,62.4,29.78,NNW,343,8.0,8.0,47,0.00,,,0.00,207,Wunderground v.1.15,2015-07-04 02:00:00,
2015-07-03 19:04:00,85.8,62.6,29.78,NNW,346,14.0,14.0,46,0.00,,,0.00,250,Wunderground v.1.15,2015-07-04 02:04:00,
2015-07-03 19:06:00,84.4,62.0,29.78,NNW,338,7.0,10.0,47,0.00,,,0.00,204,Wunderground v.1.15,2015-07-04 02:06:00,
2015-07-03 19:09:00,85.5,62.4,29.77,NW,317,7.0,12.0,46,0.00,,,0.00,236,Wunderground v.1.15,2015-07-04 02:09:00,
2015-07-03 19:14:00,85.1,62.0,29.78,NNW,338,11.0,14.0,46,0.00,,,0.00,220,Wunderground v.1.15,2015-07-04 02:14:00,
2015-07-03 19:24:00,84.8,62.3,29.78,NNW,345,7.0,10.0,47,0.00,,,0.00,204,Wunderground v.1.15,2015-07-04 02:24:00,
2015-07-03 19:29:00,84.1,61.7,29.78,NW,321,4.0,8.0,47,0.00,,,0.00,174,Wunderground v.1.15,2015-07-04 02:29:00,
2015-07-03 19:34:00,83.9,61.5,29.78,NNE,13,6.0,10.0,47,0.00,,,0.00,158,Wunderground v.1.15,2015-07-04 02:34:00,
2015-07-03 19:39:00,83.6,61.2,29.78,NNW,344,9.0,13.0,47,0.00,,,0.00,142,Wunderground v.1.15,2015-07-04 02:39:00,
2015-07-03 19:44:00,83.2,61.5,29.78,North,5,5.0,13.0,48,0.00,,,0.00,125,Wunderground v.1.15,2015-07-04 02:44:00,
2015-07-03 19:49:00,82.9,61.2,29.78,NNW,338,9.0,12.0,48,0.00,,,0.00,111,Wunderground v.1.15,2015-07-04 02:49:00,
2015-07-03 19:54:00,82.4,60.7,29.78,NW,321,7.0,12.0,48,0.00,,,0.00,97,Wunderground v.1.15,2015-07-04 02:54:00,
2015-07-03 19:59:00,81.8,60.8,29.78,NNW,342,10.0,13.0,49,0.00,,,0.00,83,Wunderground v.1.15,2015-07-04 02:59:00,
2015-07-03 20:04:00,81.5,60.5,29.79,NNW,342,2.0,13.0,49,0.00,,,0.00,70,Wunderground v.1.15,2015-07-04 03:04:00,